XE2KK-10 Weather Reports


time (UTC)temp
C
wind
direction
speed
KPH
gust
KPH
rain 1hr
cm
rain 24hr
cm
rain mn
cm
humidity
%
barometer
mb
20260507125912 24 38 4.8 4.8 0.00 0.00 0.00 84 1014.1
20260507125412 24 25 6.4 8.0 0.00 0.00 0.00 83 1014.2
20260507124913 24 315 4.8 6.4 0.00 0.00 0.00 83 1013.8
20260507124413 24 9 4.8 6.4 0.00 0.00 0.00 82 1013.8
20260507123913 24 325 1.6 3.2 0.00 0.00 0.00 82 1013.8
20260507123412 24 325 1.6 3.2 0.00 0.00 0.00 82 1013.6
20260507122912 24 307 3.2 3.2 0.00 0.00 0.00 82 1013.6
20260507122413 24 74 1.6 3.2 0.00 0.00 0.00 82 1013.7
20260507121913 24 352 3.2 4.8 0.00 0.00 0.00 82 1013.8
20260507121413 24 20 3.2 4.8 0.00 0.00 0.00 82 1013.8
20260507120913 24 312 1.6 3.2 0.00 0.00 0.00 82 1013.5
20260507120412 24 39 3.2 4.8 0.00 0.00 0.00 81 1013.6
20260507115912 24 330 0.0 0.0 0.00 0.00 0.00 81 1013.6
20260507115413 24 3 3.2 4.8 0.00 0.00 0.00 81 1013.6
20260507114912 24 343 1.6 3.2 0.00 0.00 0.00 81 1013.6
20260507114413 25 101 3.2 3.2 0.00 0.00 0.00 80 1013.3
20260507113912 25 48 3.2 3.2 0.00 0.00 0.00 80 1013.3
20260507113412 25 39 1.6 3.2 0.00 0.00 0.00 80 1013.4
20260507112912 25 341 1.6 3.2 0.00 0.00 0.00 80 1013.3
20260507112413 25 5 1.6 3.2 0.00 0.00 0.00 80 1013.4
20260507111912 25 50 4.8 6.4 0.00 0.00 0.00 80 1013.2
20260507111412 25 303 0.0 0.0 0.00 0.00 0.00 79 1013.4
20260507110912 25 323 0.0 0.0 0.00 0.00 0.00 80 1013.4
20260507110413 25 309 0.0 0.0 0.00 0.00 0.00 79 1013.5
20260507105913 25 300 0.0 0.0 0.00 0.00 0.00 79 1013.3
20260507105413 25 288 0.0 0.0 0.00 0.00 0.00 79 1013.4
20260507104912 25 281 1.6 3.2 0.00 0.00 0.00 79 1013.2
20260507104412 25 317 1.6 3.2 0.00 0.00 0.00 79 1013.4
20260507103913 25 303 1.6 3.2 0.00 0.00 0.00 79 1013.1
20260507103412 25 282 4.8 6.4 0.00 0.00 0.00 79 1013.3
20260507102912 25 343 3.2 4.8 0.00 0.00 0.00 79 1013.1
20260507102412 25 301 1.6 3.2 0.00 0.00 0.00 79 1013.1
20260507101912 25 278 0.0 0.0 0.00 0.00 0.00 78 1013.2
20260507101412 25 262 0.0 0.0 0.00 0.00 0.00 78 1013.5
20260507100913 25 276 0.0 0.0 0.00 0.00 0.00 78 1013.1
20260507100412 25 284 1.6 3.2 0.00 0.00 0.00 78 1013.2
20260507095912 25 263 0.0 0.0 0.00 0.00 0.00 78 1012.9
20260507095412 25 262 1.6 3.2 0.00 0.00 0.00 77 1013.0
20260507094912 25 275 3.2 3.2 0.00 0.00 0.00 77 1012.9
20260507094412 25 281 3.2 4.8 0.00 0.00 0.00 77 1012.9
20260507093913 25 272 1.6 3.2 0.00 0.00 0.00 77 1012.8
20260507093412 25 262 1.6 3.2 0.00 0.00 0.00 77 1012.8
20260507092912 25 254 3.2 4.8 0.00 0.00 0.00 77 1012.9
20260507092412 25 259 3.2 4.8 0.00 0.00 0.00 77 1012.9
20260507091912 25 251 4.8 6.4 0.00 0.00 0.00 77 1013.0
20260507091412 25 240 1.6 3.2 0.00 0.00 0.00 77 1012.9
20260507090913 25 279 3.2 4.8 0.00 0.00 0.00 76 1012.9
20260507090412 25 245 3.2 4.8 0.00 0.00 0.00 76 1013.0
20260507085912 25 265 3.2 4.8 0.00 0.00 0.00 76 1012.8
20260507085412 25 264 3.2 4.8 0.00 0.00 0.00 76 1012.7
20260507084912 25 284 1.6 3.2 0.00 0.00 0.00 76 1012.7
20260507084412 25 296 3.2 3.2 0.00 0.00 0.00 76 1012.9
20260507083913 26 295 4.8 4.8 0.00 0.00 0.00 76 1012.9
20260507083412 25 279 1.6 3.2 0.00 0.00 0.00 76 1013.0
20260507082912 26 49 3.2 4.8 0.00 0.00 0.00 75 1013.0
20260507082412 25 18 3.2 3.2 0.00 0.00 0.00 75 1012.9
20260507081912 25 272 0.0 0.0 0.00 0.00 0.00 75 1013.0
20260507081412 25 300 1.6 3.2 0.00 0.00 0.00 75 1013.0
20260507080913 26 319 1.6 3.2 0.00 0.00 0.00 75 1012.9
20260507080412 26 306 0.0 0.0 0.00 0.00 0.00 75 1012.9
20260507075918 26 307 1.6 3.2 0.00 0.00 0.00 75 1013.1
20260507075419 26 289 1.6 3.2 0.00 0.00 0.00 75 1013.1
20260507074912 26 266 1.6 3.2 0.00 0.00 0.00 75 1013.3
20260507074412 26 259 0.0 0.0 0.00 0.00 0.00 74 1013.2
20260507073912 26 131 0.0 0.0 0.00 0.00 0.00 74 1013.0
20260507073413 26 282 1.6 3.2 0.00 0.00 0.00 74 1013.0
20260507072913 26 250 3.2 3.2 0.00 0.00 0.00 73 1013.0
20260507072413 26 269 4.8 6.4 0.00 0.00 0.00 73 1013.1
20260507071912 26 270 3.2 4.8 0.00 0.00 0.00 72 1012.9
20260507071412 26 249 3.2 6.4 0.00 0.00 0.00 72 1012.9
20260507070912 26 283 8.0 9.7 0.00 0.00 0.00 72 1012.9
20260507070413 26 20 6.4 8.0 0.00 0.00 0.00 71 1012.8
20260507065913 26 1 11.3 14.5 0.00 0.00 0.00 71 1012.9
20260507065413 26 347 6.4 9.7 0.00 0.00 0.00 71 1012.8
20260507064912 26 6 6.4 9.7 0.00 0.00 0.00 70 1012.8
20260507064412 26 269 6.4 9.7 0.00 0.00 0.00 70 1012.8
20260507063913 27 328 9.7 14.5 0.00 0.00 0.00 70 1012.9
20260507063413 27 349 9.7 11.3 0.00 0.00 0.00 69 1012.9
20260507062913 27 306 8.0 11.3 0.00 0.00 0.00 69 1012.9
20260507062413 27 331 8.0 9.7 0.00 0.00 0.00 68 1012.8
20260507061912 27 292 6.4 8.0 0.00 0.00 0.00 68 1013.0
20260507061412 27 348 9.7 14.5 0.00 0.00 0.00 68 1012.8
20260507060913 27 321 4.8 11.3 0.00 0.00 0.00 67 1012.7
20260507060412 27 323 8.0 14.5 0.00 0.00 0.00 67 1012.8
20260507055912 27 279 4.8 6.4 0.00 0.00 0.00 67 1012.6
20260507055412 27 248 8.0 14.5 0.00 0.00 0.00 66 1012.9
20260507054912 27 330 4.8 9.7 0.00 0.00 0.00 66 1012.7
20260507054412 27 276 8.0 9.7 0.00 0.00 0.00 65 1012.5
20260507053913 27 344 4.8 8.0 0.00 0.00 0.00 64 1012.7
20260507053412 27 276 9.7 11.3 0.00 0.00 0.00 64 1012.6
20260507052912 28 298 6.4 8.0 0.00 0.00 0.00 63 1012.7
20260507052412 28 351 8.0 9.7 0.00 0.00 0.00 64 1012.7
20260507051912 28 316 12.9 16.1 0.00 0.00 0.00 63 1012.7
20260507051412 28 315 17.7 20.9 0.00 0.00 0.00 63 1012.6
20260507050913 28 284 11.3 16.1 0.00 0.00 0.00 63 1012.3
20260507050412 28 306 12.9 16.1 0.00 0.00 0.00 63 1012.6
20260507045912 28 320 3.2 6.4 0.00 0.00 0.00 62 1012.3
20260507045412 28 329 4.8 8.0 0.00 0.00 0.00 62 1012.2
20260507044913 28 353 9.7 14.5 0.00 0.00 0.00 62 1012.1
20260507044413 28 206 6.4 11.3 0.00 0.00 0.00 62 1012.0
20260507043913 28 16 9.7 16.1 0.00 0.00 0.00 61 1012.2
20260507043412 28 337 8.0 9.7 0.00 0.00 0.00 61 1012.2
20260507042912 28 327 4.8 6.4 0.00 0.00 0.00 61 1012.0
20260507042412 28 345 9.7 11.3 0.00 0.00 0.00 61 1012.1
20260507041913 28 328 6.4 9.7 0.00 0.00 0.00 61 1012.0
20260507041413 28 332 8.0 11.3 0.00 0.00 0.00 61 1012.0
20260507040913 28 332 9.7 11.3 0.00 0.00 0.00 61 1011.8
20260507040412 28 295 8.0 9.7 0.00 0.00 0.00 61 1011.9
20260507035912 28 44 12.9 16.1 0.00 0.00 0.00 61 1011.8
20260507035412 28 24 9.7 16.1 0.00 0.00 0.00 61 1011.8
20260507034913 28 330 16.1 19.3 0.00 0.00 0.00 60 1011.8
20260507034413 28 323 9.7 16.1 0.00 0.00 0.00 60 1011.8
20260507033912 28 274 6.4 8.0 0.00 0.00 0.00 60 1011.8
20260507033412 28 333 11.3 20.9 0.00 0.00 0.00 60 1011.5
20260507032912 29 1 12.9 16.1 0.00 0.00 0.00 60 1011.5
20260507032413 28 323 9.7 9.7 0.00 0.00 0.00 60 1011.5
20260507031912 28 293 12.9 16.1 0.00 0.00 0.00 60 1011.7
20260507031412 28 281 4.8 6.4 0.00 0.00 0.00 60 1011.4
20260507030912 29 9 11.3 16.1 0.00 0.00 0.00 60 1011.2
20260507030412 29 321 12.9 17.7 0.00 0.00 0.00 60 1011.3
20260507025912 29 202 6.4 11.3 0.00 0.00 0.00 60 1010.9
20260507025413 29 333 6.4 11.3 0.00 0.00 0.00 60 1010.8
20260507024912 29 249 8.0 11.3 0.00 0.00 0.00 60 1010.9
20260507024412 29 26 6.4 9.7 0.00 0.00 0.00 60 1010.6
20260507023912 29 327 16.1 22.5 0.00 0.00 0.00 59 1010.9
20260507023412 29 291 9.7 11.3 0.00 0.00 0.00 59 1010.7
20260507022912 29 345 17.7 20.9 0.00 0.00 0.00 59 1010.6
20260507022413 30 2 9.7 16.1 0.00 0.00 0.00 59 1010.7
20260507021912 30 269 8.0 9.7 0.00 0.00 0.00 58 1010.3
20260507021412 30 252 4.8 9.7 0.00 0.00 0.00 58 1010.3
20260507020912 30 334 6.4 8.0 0.00 0.00 0.00 58 1010.0
20260507020412 30 306 9.7 11.3 0.00 0.00 0.00 57 1010.2
20260507015912 30 331 9.7 17.7 0.00 0.00 0.00 57 1009.9
20260507015413 30 244 14.5 17.7 0.00 0.00 0.00 57 1009.6
20260507014912 30 43 19.3 20.9 0.00 0.00 0.00 57 1009.6
20260507014412 30 356 11.3 14.5 0.00 0.00 0.00 56 1009.8
20260507013912 30 18 9.7 17.7 0.00 0.00 0.00 56 1009.7
20260507013412 30 3 12.9 20.9 0.00 0.00 0.00 55 1009.5
20260507012912 30 348 12.9 16.1 0.00 0.00 0.00 55 1009.3
20260507012413 30 23 11.3 17.7 0.00 0.00 0.00 54 1009.3
20260507011912 31 25 16.1 25.7 0.00 0.00 0.00 54 1009.1
20260507011412 31 319 19.3 25.7 0.00 0.00 0.00 54 1009.1
20260507010912 31 347 12.9 20.9 0.00 0.00 0.00 53 1008.9
20260507010412 31 78 11.3 16.1 0.00 0.00 0.00 53 1008.8
20260507005912 31 49 9.7 17.7 0.00 0.00 0.00 53 1008.6
20260507005413 31 321 16.1 20.9 0.00 0.00 0.00 53 1008.4
20260507004912 31 342 29.0 37.0 0.00 0.00 0.00 52 1008.5
20260507004412 31 324 9.7 11.3 0.00 0.00 0.00 52 1008.2
20260507003912 31 95 22.5 33.8 0.00 0.00 0.00 51 1008.1
20260507003412 32 358 19.3 22.5 0.00 0.00 0.00 50 1008.3
20260507002912 32 353 22.5 30.6 0.00 0.00 0.00 50 1008.1
20260507002413 32 300 11.3 17.7 0.00 0.00 0.00 49 1007.9
20260507001912 32 19 12.9 17.7 0.00 0.00 0.00 48 1007.7
20260507001412 32 16 19.3 22.5 0.00 0.00 0.00 48 1007.4
20260507000912 32 297 11.3 17.7 0.00 0.00 0.00 47 1007.2
20260507000412 33 14 19.3 25.7 0.00 0.00 0.00 47 1007.2
20260506235912 33 291 17.7 24.1 0.00 0.00 0.00 46 1007.1
20260506235413 33 2 11.3 16.1 0.00 0.00 0.00 46 1007.1
20260506234912 33 319 12.9 16.1 0.00 0.00 0.00 45 1007.0
20260506234412 34 331 11.3 16.1 0.00 0.00 0.00 43 1006.7
20260506233912 35 349 14.5 20.9 0.00 0.00 0.00 41 1006.6
20260506233412 35 63 9.7 16.1 0.00 0.00 0.00 38 1006.7
20260506232912 36 287 12.9 19.3 0.00 0.00 0.00 36 1006.5
20260506232413 36 31 16.1 20.9 0.00 0.00 0.00 32 1006.3
20260506231912 37 39 12.9 16.1 0.00 0.00 0.00 28 1006.4
20260506231412 37 320 6.4 9.7 0.00 0.00 0.00 25 1006.7
20260506230912 37 328 9.7 17.7 0.00 0.00 0.00 25 1006.3
20260506230412 37 31 6.4 9.7 0.00 0.00 0.00 25 1006.4
20260506225912 37 247 8.0 9.7 0.00 0.00 0.00 26 1006.3
20260506225413 37 285 4.8 6.4 0.00 0.00 0.00 24 1006.4
20260506224912 37 8 6.4 9.7 0.00 0.00 0.00 24 1006.2
20260506224412 37 32 4.8 8.0 0.00 0.00 0.00 23 1006.2
20260506223912 37 61 6.4 9.7 0.00 0.00 0.00 22 1006.4
20260506223412 37 43 9.7 16.1 0.00 0.00 0.00 21 1006.0
20260506222912 37 265 8.0 9.7 0.00 0.00 0.00 22 1006.1
20260506222413 37 248 4.8 9.7 0.00 0.00 0.00 22 1006.0
20260506221912 37 34 6.4 9.7 0.00 0.00 0.00 22 1006.1
20260506221412 37 14 6.4 9.7 0.00 0.00 0.00 22 1006.1
20260506220912 37 16 6.4 8.0 0.00 0.00 0.00 22 1006.1
20260506220412 37 4 6.4 9.7 0.00 0.00 0.00 22 1006.2
20260506215912 37 322 8.0 9.7 0.00 0.00 0.00 22 1006.1
20260506215413 37 95 6.4 9.7 0.00 0.00 0.00 22 1006.3
20260506214912 37 347 8.0 11.3 0.00 0.00 0.00 21 1006.3
20260506214412 37 59 4.8 6.4 0.00 0.00 0.00 21 1006.3
20260506213912 37 73 8.0 11.3 0.00 0.00 0.00 21 1006.2
20260506213413 37 322 6.4 9.7 0.00 0.00 0.00 20 1005.9
20260506212913 38 356 6.4 9.7 0.00 0.00 0.00 20 1006.3
20260506212413 40 28 8.0 11.3 0.00 0.00 0.00 19 1006.3
20260506211912 40 337 3.2 4.8 0.00 0.00 0.00 13 1006.8
20260506211412 39 344 1.6 3.2 0.00 0.00 0.00 17 1006.3
20260506210912 40 61 4.8 6.4 0.00 0.00 0.00 12 1006.6
20260506210413 40 189 8.0 8.0 0.00 0.00 0.00 11 1006.7
20260506205913 40 245 4.8 6.4 0.00 0.00 0.00 11 1006.6
20260506205413 40 192 6.4 6.4 0.00 0.00 0.00 11 1006.9
20260506204912 40 172 1.6 3.2 0.00 0.00 0.00 11 1007.0
20260506204412 40 282 4.8 4.8 0.00 0.00 0.00 11 1007.0
20260506203912 40 263 3.2 4.8 0.00 0.00 0.00 12 1006.8
20260506203413 40 254 11.3 16.1 0.00 0.00 0.00 11 1007.0
20260506202913 40 25 4.8 6.4 0.00 0.00 0.00 12 1007.3
20260506202413 40 296 6.4 9.7 0.00 0.00 0.00 12 1007.2
20260506201912 40 32 3.2 4.8 0.00 0.00 0.00 12 1007.2
20260506201412 40 291 6.4 8.0 0.00 0.00 0.00 12 1007.2
20260506200912 39 270 3.2 4.8 0.00 0.00 0.00 12 1007.5
20260506200413 38 296 4.8 6.4 0.00 0.00 0.00 15 1007.5
20260506195913 38 131 9.7 11.3 0.00 0.00 0.00 12 1007.7
20260506195413 38 18 6.4 14.5 0.00 0.00 0.00 15 1007.3
20260506194912 39 291 4.8 6.4 0.00 0.00 0.00 14 1007.8
20260506194412 38 53 3.2 6.4 0.00 0.00 0.00 17 1008.1
20260506193912 37 43 8.0 11.3 0.00 0.00 0.00 22 1008.0
20260506193413 37 324 4.8 6.4 0.00 0.00 0.00 23 1008.2
20260506192913 37 210 4.8 6.4 0.00 0.00 0.00 23 1008.3
20260506192413 37 320 4.8 4.8 0.00 0.00 0.00 24 1008.4
20260506191912 37 22 4.8 8.0 0.00 0.00 0.00 24 1008.7
20260506191412 38 80 1.6 3.2 0.00 0.00 0.00 22 1008.5
20260506190912 37 269 3.2 4.8 0.00 0.00 0.00 18 1008.7
20260506190413 37 294 3.2 4.8 0.00 0.00 0.00 23 1008.7
20260506185913 37 292 3.2 6.4 0.00 0.00 0.00 25 1008.8
20260506185413 36 7 4.8 6.4 0.00 0.00 0.00 28 1009.0
20260506184912 36 345 3.2 4.8 0.00 0.00 0.00 29 1009.1
20260506184412 36 191 1.6 3.2 0.00 0.00 0.00 29 1009.1
20260506183912 35 302 3.2 4.8 0.00 0.00 0.00 30 1009.1
20260506183413 37 215 1.6 3.2 0.00 0.00 0.00 28 1009.5
20260506182913 36 269 1.6 3.2 0.00 0.00 0.00 29 1009.2
20260506182413 35 301 4.8 6.4 0.00 0.00 0.00 29 1009.4
20260506181912 35 317 6.4 9.7 0.00 0.00 0.00 34 1009.5
20260506181412 35 26 3.2 4.8 0.00 0.00 0.00 36 1009.8
20260506180912 35 335 3.2 4.8 0.00 0.00 0.00 37 1009.5
20260506180413 34 24 4.8 8.0 0.00 0.00 0.00 39 1009.8
20260506175913 35 16 4.8 8.0 0.00 0.00 0.00 38 1009.8
20260506175413 33 19 3.2 3.2 0.00 0.00 0.00 41 1009.8
20260506174912 33 348 4.8 6.4 0.00 0.00 0.00 38 1010.0
20260506174412 33 276 1.6 3.2 0.00 0.00 0.00 39 1010.0
20260506173912 33 342 4.8 8.0 0.00 0.00 0.00 44 1010.0
20260506173413 33 311 3.2 4.8 0.00 0.00 0.00 44 1010.3
20260506172913 33 288 3.2 4.8 0.00 0.00 0.00 45 1010.3
20260506172413 33 239 1.6 3.2 0.00 0.00 0.00 43 1010.1
20260506171912 33 256 4.8 6.4 0.00 0.00 0.00 43 1010.3
20260506171412 33 239 4.8 6.4 0.00 0.00 0.00 45 1010.3
20260506170912 32 203 1.6 3.2 0.00 0.00 0.00 47 1010.3
20260506170413 32 230 1.6 3.2 0.00 0.00 0.00 48 1010.3
20260506165913 33 304 1.6 3.2 0.00 0.00 0.00 48 1010.2
20260506165413 32 244 0.0 0.0 0.00 0.00 0.00 49 1010.4
20260506164912 32 344 3.2 4.8 0.00 0.00 0.00 52 1010.5
20260506164412 31 13 3.2 4.8 0.00 0.00 0.00 55 1010.2
20260506163913 31 18 3.2 4.8 0.00 0.00 0.00 54 1010.4
20260506163413 31 40 4.8 6.4 0.00 0.00 0.00 55 1010.6
20260506162913 31 132 4.8 6.4 0.00 0.00 0.00 56 1010.5
20260506162412 31 175 1.6 3.2 0.00 0.00 0.00 57 1010.7
20260506161912 30 123 3.2 4.8 0.00 0.00 0.00 59 1010.6
20260506161412 31 103 1.6 4.8 0.00 0.00 0.00 58 1010.6
20260506160913 30 87 1.6 3.2 0.00 0.00 0.00 59 1010.4
20260506160413 30 346 3.2 3.2 0.00 0.00 0.00 60 1010.7
20260506155913 31 109 3.2 4.8 0.00 0.00 0.00 59 1010.7
20260506155413 30 307 0.0 0.0 0.00 0.00 0.00 61 1010.7
20260506154912 29 65 3.2 4.8 0.00 0.00 0.00 63 1010.6
20260506154412 29 22 3.2 4.8 0.00 0.00 0.00 63 1010.5
20260506153913 28 305 4.8 4.8 0.00 0.00 0.00 65 1010.5
20260506153412 28 286 0.0 0.0 0.00 0.00 0.00 65 1010.4
20260506152912 28 204 0.0 0.0 0.00 0.00 0.00 66 1010.4
20260506152412 28 31 3.2 4.8 0.00 0.00 0.00 68 1010.6
20260506151912 27 103 3.2 4.8 0.00 0.00 0.00 70 1010.4
20260506151412 28 336 3.2 4.8 0.00 0.00 0.00 69 1010.3
20260506150913 27 336 3.2 6.4 0.00 0.00 0.00 71 1010.6
20260506150413 28 289 3.2 3.2 0.00 0.00 0.00 69 1010.6
20260506145912 27 104 3.2 4.8 0.00 0.00 0.00 71 1010.3
20260506145412 28 13 6.4 6.4 0.00 0.00 0.00 71 1010.5
20260506144912 27 51 3.2 4.8 0.00 0.00 0.00 73 1010.5
20260506144412 27 47 1.6 3.2 0.00 0.00 0.00 74 1010.6
20260506143913 27 347 3.2 4.8 0.00 0.00 0.00 75 1010.5
20260506143412 27 323 4.8 6.4 0.00 0.00 0.00 75 1010.5
20260506142912 27 25 3.2 4.8 0.00 0.00 0.00 76 1010.6
20260506142412 27 344 4.8 8.0 0.00 0.00 0.00 75 1010.6
20260506141912 26 283 1.6 3.2 0.00 0.00 0.00 77 1010.6
20260506141413 26 306 3.2 3.2 0.00 0.00 0.00 76 1010.5
20260506140913 26 50 3.2 4.8 0.00 0.00 0.00 77 1010.6
20260506140903 26 9 3.2 6.4 0.00 0.00 0.00 78 1010.5
20260506140412 26 9 3.2 6.4 0.00 0.00 0.00 78 1010.5
20260506135912 26 44 4.8 6.4 0.00 0.00 0.00 79 1010.4
20260506135412 26 15 4.8 6.4 0.00 0.00 0.00 80 1010.3
20260506134913 26 31 6.4 8.0 0.00 0.00 0.00 79 1010.3
20260506134413 26 18 6.4 8.0 0.00 0.00 0.00 79 1010.2
20260506133913 26 24 4.8 6.4 0.00 0.00 0.00 78 1010.2
20260506133412 25 346 4.8 6.4 0.00 0.00 0.00 79 1010.3
20260506132912 25 356 4.8 6.4 0.00 0.00 0.00 79 1010.2
20260506132413 25 39 6.4 11.3 0.00 0.00 0.00 79 1010.0
20260506131913 26 31 4.8 6.4 0.00 0.00 0.00 77 1010.0
20260506131413 26 42 4.8 6.4 0.00 0.00 0.00 69 1010.0
20260506130912 26 25 3.2 3.2 0.00 0.00 0.00 63 1009.9
20260506130412 26 317 1.6 3.2 0.00 0.00 0.00 61 1009.8